Last server records
Pro Nub

Map info

kzlt_greenhop
kzlt_greenhop ( Cosy-Climbing) 02.11.2009
Cosy-Climbing record Cupe - 02:48.88

KZ-Rush record zmokiE - 03:39.98

Mapper  Dragos

Pro-record SlasHeR - 03:27.67

Nub-record xenge - 03:23.07 (127 cp / 8 gc)

Difficulty Easy

Length Middle

Download map kzlt_greenhop (2,06 MB)
Installation instructions

Map Installation Guide

  1. Download map archive kzlt_greenhop.zip
  2. Unzip the archive in any convenient folder
  3. Open cstrike folder, which is located in the place of Counter-Strike installation. In case of Steam version the path looks like Steam\steamapps\common\Half-Life
  4. Copy all files from the folder, where you unzipped the archive, to cstrike folder according to the following table (if your system asks about replacing files, choose Copy and Replace):
gfx/env/kzlt_greenhopbk.tga>>gfx/env/kzlt_greenhopbk.tga
gfx/env/kzlt_greenhopdn.tga>>gfx/env/kzlt_greenhopdn.tga
gfx/env/kzlt_greenhopft.tga>>gfx/env/kzlt_greenhopft.tga
gfx/env/kzlt_greenhoplf.tga>>gfx/env/kzlt_greenhoplf.tga
gfx/env/kzlt_greenhoprt.tga>>gfx/env/kzlt_greenhoprt.tga
gfx/env/kzlt_greenhopup.tga>>gfx/env/kzlt_greenhopup.tga
maps/kzlt_greenhop.bsp>>maps/kzlt_greenhop.bsp
maps/kzlt_greenhop.res>>maps/kzlt_greenhop.res
maps/kzlt_greenhop.txt>>kzlt_greenhop.txt
models/kzlt_greenhop/gh_fern1.mdl>>models/kzlt_greenhop/gh_fern1.mdl
models/kzlt_greenhop/gh_tree1.mdl>>models/kzlt_greenhop/gh_tree1.mdl
models/kzlt_greenhop/gh_tree2.mdl>>models/kzlt_greenhop/gh_tree2.mdl
sound/kzlt_greenhop/gh_fire1.wav>>sound/kzlt_greenhop/gh_fire1.wav
sound/kzlt_greenhop/gh_hawk1.wav>>sound/kzlt_greenhop/gh_hawk1.wav
sound/kzlt_greenhop/gh_wind1.wav>>sound/kzlt_greenhop/gh_wind1.wav
sprites/kzlt_greenhop/gh_fire1.spr>>sprites/kzlt_greenhop/gh_fire1.spr
We don't know about shortcuts on this map

Community records

# Player Time Difference Date  
1 zmokiE 03:39.98   30.08.20
# Player Time Date Weapon
1 SlasHeR 03:27.67 23.07.19
2 voX 03:29.58 11.05.19
3 bORN2MAKEPORN 03:30.70 16.04.19
4 snegg 03:36.80 15.03.18
5 ~HR~7fAta 03:37.47 30.12.18
6 domidy 03:45.39 27.09.19
7 RoN` 03:47.26 13.01.18
8 erdik 03:47.83 15.04.18
9 ddevil 03:55.37 26.01.18
10 trololo 04:00.80 26.10.19
11 oRR 04:07.04 06.07.19
12 speexz 04:13.50 14.06.19
13 hello 04:14.05 20.12.19
14 spwkzpe 04:17.01 15.04.18
15 Andro 04:20.39 06.08.18
16 grumie 04:27.70 27.08.20
17 vladik 04:31.89 15.01.20
18 Penguin 04:35.63 08.10.18
19 lavash 04:37.17 21.10.18
20 tosha 04:42.81 17.11.17
21 米扣啥人品 04:42.81 19.05.18
22 NeffeX 04:48.24 26.02.19
23 hymm4sssS 04:51.49 17.09.20
24 Bombiribom 05:27.60 20.12.19
25 EcLiPSe 05:28.39 15.04.18
26 NeffeX 05:46.78 26.01.18
27 Presive 06:05.00 20.12.19
28 Creep 06:08.49 17.11.17
29 zepp_ 06:26.65 26.01.18
30 Revangerrrr 06:36.72 29.02.20
31 Zimok 06:38.26 27.08.20
32 Mo9I_urpa 06:41.66 17.12.18
33 inj3ct0r. 06:41.82 26.01.18
34 100 06:42.21 16.01.18
35 mistik 06:43.62 15.03.18
36 RayajiN 06:43.93 12.04.18
37 jigsaw 06:52.95 23.04.18
38 projecT 07:14.79 11.02.18
39 Дно_#_W1nS 07:30.22 21.10.18
40 TRENTCANTRELLE 07:44.51 13.11.17
41 estrom 07:59.77 11.05.19
42 Whosthat 08:01.60 12.03.19
43 Edd 08:09.94 15.04.18
44 valikhhh 08:40.66 12.03.19
45 shrk.^ 09:01.87 19.03.19
46 Emilia 09:13.92 16.01.18
47 abcdefg 09:35.05 24.10.18
48 maronny 09:39.27 06.07.19
49 PoOo 09:47.64 15.03.18
50 DragKedja 10:13.31 28.06.19
51 Darling 10:15.96 16.04.19
52 BLATOSPHERAnosound 10:27.35 23.04.18
53 avivVv 10:42.98 17.09.20
54 Dodik 10:54.20 01.07.19
55 DON_SIMON 11:01.74 20.12.19
56 shraga 11:07.13 17.09.20
57 BarnabusWizardcock 11:10.93 15.06.19
58 Zickkk 11:17.20 26.01.18
59 cstrike 11:39.77 21.10.18
60 Leprikon_^ 12:24.79 17.12.18
61 E1EMENTCORE 12:49.23 01.07.19
# Player Time Date Weapon
1 DON_SIMON 09:21.03 15.01.20
# Player Time Date Weapon
1 trololo 08:27.95 27.08.20
# Player Time Date Weapon CP GC
1 xenge 03:23.07 15.04.18 127 8
2 Shinzo 03:23.74 17.11.17 94 2
3 voX 03:24.30 11.05.19 99 3
4 Silk_Road 03:29.04 15.01.20 75 3
5 米扣啥人品 03:38.39 06.04.18 57 7
6 APACHE 03:39.71 27.08.20 117 8
7 Pandemic 03:43.04 06.07.19 76 8
8 RoN` 03:46.18 13.01.18 103 6
9 Qicg 03:48.24 19.03.19 106 13
10 ~HR~7fAta 03:49.88 30.12.18 75 7
11 bORN2MAKEPORN 03:52.26 15.03.18 84 9
12 qwe 04:01.64 15.03.18 89 15
13 vound 04:04.32 14.06.19 125 14
14 smFDD 04:05.16 15.04.18 88 20
15 Sixel^ 04:05.75 23.04.18 128 14
16 maiLyy 04:10.30 21.10.18 83 9
17 Silk_Road 04:12.01 25.09.18 93 11
18 eeN 04:15.74 30.12.18 105 7
19 KaHapeuKa.brn 04:20.05 17.09.20 105 21
20 tosha 04:24.16 17.11.17 131 18
21 mistik 04:28.03 08.03.19 95 12
22 spwkzpe 04:30.71 15.04.18 78 19
23 megaman 04:30.87 01.07.19 124 23
24 grumie 04:31.75 27.08.20 84 23
25 maks 04:35.50 06.04.18 97 7
26 TRENTCANTRELLE 04:39.17 07.11.17 118 22
27 EcLiPSe 04:40.48 15.04.18 106 20
28 ddevil 04:42.13 26.01.18 123 23
29 DeathEater 04:46.68 27.08.20 98 29
30 projecT 04:54.21 15.03.18 95 19
31 inj3ct0r. 05:04.18 23.04.18 140 32
32 rapier 05:05.16 15.01.20 99 26
33 _Tu4Ka 05:06.34 09.12.19 107 25
34 NeffeX 05:06.96 26.01.18 135 27
35 [WS] 05:08.20 01.07.19 124 28
36 Дно_#_W1nS 05:15.09 15.01.20 116 29
37 oRR 05:17.40 06.07.19 6 1
38 ПыЛкиЙ 05:21.51 28.06.19 111 31
39 taipan 05:31.75 09.12.19 134 21
40 sook 05:37.85 17.11.17 115 36
41 smile 05:38.32 12.04.18 140 29
42 Emilia 05:39.64 13.11.17 112 28
43 Leshik1992_no_sound 05:46.77 25.01.18 105 32
44 IDs^^ 05:55.19 07.11.17 88 54
45 lavash 05:55.48 21.10.18 146 28
46 pttttt 05:56.21 01.07.19 110 44
47 999 05:56.22 26.02.19 130 37
48 Cute 06:05.90 09.12.19 109 35
49 space 06:06.45 15.03.18 88 48
50 Roseanne_Park. 06:07.56 21.07.18 116 32
51 y4en1k_kocmonafta_D 06:17.66 19.03.19 179 45
52 Admin 06:18.09 11.05.19 130 26
53 Mara_Salvatrucha 06:23.33 23.04.18 81 27
54 reflx 06:25.70 12.03.19 108 62
55 estrom 06:26.08 25.09.18 128 54
56 rach 06:29.18 15.04.18 115 41
57 9CbKA 06:29.70 27.07.18 138 67
58 Stanley 06:32.13 17.12.18 179 40
59 Andris 06:33.23 29.02.20 149 40
60 snegg 06:33.33 11.02.18 129 31
61 Nutella 06:37.73 21.10.18 175 32
62 Presive 06:37.90 29.02.20 102 30
63 cyxue_nonku^huggies 06:41.96 01.06.20 158 37
64 playerS 06:46.76 23.04.18 111 44
65 pe4enbki 06:46.88 01.05.18 139 42
66 123 06:47.49 08.10.18 163 44
67 wooo 06:57.47 03.04.19 139 43
68 mvxtip 06:59.62 19.03.19 207 52
69 lampoviyASd 06:59.98 12.04.20 190 33
70 selcYc 07:00.35 29.02.20 126 49
71 wfloww 07:01.17 08.03.19 108 62
72 fantastikaaaaaaa 07:05.47 15.03.18 146 57
73 Flomaster 07:16.15 28.06.19 157 62
74 maronny 07:17.72 06.07.19 121 43
75 Pain___Lithuanian 07:23.83 15.01.20 124 50
76 XaOs. 07:29.20 29.02.20 142 39
77 DOGgggg 07:30.13 21.10.18 116 38
78 tommy 07:32.19 27.09.19 92 60
79 Boni 07:35.44 15.01.20 166 70
80 Penguin 07:36.11 08.10.18 78 23
81 techXJ___Ruskqwer1337 07:37.24 06.08.18 112 50
82 Dodik 07:39.22 14.06.19 165 67
83 Svetliy 07:40.00 06.04.18 92 30
84 100 07:40.72 16.01.18 71 28
85 Strike^oFF 07:44.39 05.06.18 77 28
86 NucLeaR 07:45.16 17.11.17 170 48
87 Harley 07:53.21 19.03.19 225 60
88 termik 07:58.21 15.01.20 77 39
89 votaky_vh35q 07:58.79 27.09.19 97 43
90 Fara1 07:59.15 21.10.18 170 94
91 Charisma 08:00.90 17.12.18 167 61
92 P 08:06.07 11.05.19 136 56
93 O_daaa_))) 08:06.23 11.02.18 105 55
94 Mo9I_urpa 08:09.39 17.12.18 113 43
95 Stas_Pihailov 08:16.00 26.01.18 117 53
96 Skalpelb 08:34.65 01.07.19 94 38
97 SENKAY 08:36.67 09.06.18 97 55
98 StOoP!d_M0nKey 08:39.41 29.12.18 98 45
99 YanaLapa 08:40.42 26.10.19 2 1
100 slovaed 08:40.86 12.03.19 44 44
101 Gzp 08:57.49 06.04.18 149 92
102 mali_alsojakub 09:07.10 01.05.18 126 49
103 Fulioz 09:09.80 17.11.17 175 95
104 Zak 09:12.80 27.08.20 250 58
105 Player 09:12.94 21.10.18 109 61
106 ckreek 09:17.95 26.10.19 148 60
107 Alf 09:19.58 21.10.18 224 62
108 Mirnaya 09:27.30 29.02.20 99 53
109 EVilGENIUS 09:28.53 29.12.18 141 69
110 Dodger 09:28.71 26.01.18 150 77
111 Severus 09:30.31 25.09.18 135 75
112 sonata. 09:35.28 06.04.18 150 65
113 Mou_rocnoguH 09:43.38 24.10.18 68 31
114 Al4nayaMrazb 09:47.39 16.07.18 121 109
115 drowa 09:47.42 02.03.18 132 79
116 S!NDYtheBULL 09:50.70 26.01.18 43 49
117 dimaRIC 09:53.61 15.03.18 161 74
118 ScotoBaza 09:53.89 15.04.18 274 122
119 eFF__test1 09:53.95 06.08.18 212 76
120 axa 09:59.37 24.10.18 106 59
121 4RANGE__REDDYYYYYYYYYYYYYYYY 10:20.81 15.03.18 136 81
122 4RANGE__FUTZ00000000000000R 10:22.36 15.03.18 140 92
123 lol 10:22.75 15.04.18 161 90
124 nakurennIq 10:23.57 19.03.19 158 86
125 diana_melison 10:45.01 12.03.19 104 68
126 .bmp 10:50.24 08.10.18 187 110
127 P 10:53.91 02.03.18 113 48
128 6ix6ix6ix 11:00.77 01.06.20 114 109
129 Ninja 11:07.06 01.07.19 122 70
130 -ggbb. 11:15.42 25.09.18 127 91
131 SamuelBaum 11:20.51 11.05.19 131 73
132 Mazinja 11:35.70 15.04.18 153 75
133 cyr_cyr_mishki 11:44.60 08.10.18 147 108
134 equinzy 11:53.59 19.03.19 106 69
135 Vasheron 12:21.03 15.03.18 172 91
136 ACID_THUNDER 12:29.24 11.01.18 57 90
137 Natali 12:35.56 01.07.19 153 71
138 LOST_HOPE 14:54.44 15.03.18 152 108
139 Player 15:48.29 09.12.19 167 217
140 KinG_HooliGanS 16:02.64 19.06.20 187 121
141 ultrasi 16:27.26 20.12.19 136 97
142 kEEEEEEEEEEEEEEEEEEEEEEEiz2h 16:47.68 29.02.20 178 212
143 ArvInD 18:01.92 12.03.19 117 174
144 4ChD(no_sound) 18:09.43 29.02.20 79 253
145 Pushkin 19:22.79 09.12.19 190 171
146 ЦарьМухосра 20:14.25 19.03.19 90 124
147 sharovoebezumie 20:44.80 15.03.18 199 105
148 cstrike 25:12.34 06.08.18 199 259
149 lopez 29:03.38 27.09.19 89 194
# Player Time Date Weapon CP GC
1 kEEEEEEEEEEEEEEEEEEEEEEEiz2h 11:27.28 29.02.20 164 132
# Player Time Date Weapon CP GC
1 Сtarblu 10:27.64 02.03.18 165 89

Other maps with same difficulty

Other maps from Cosy-Climbing

Other maps from mapper Dragos